When you browse on this site, cookies collect data to enhance your experience and personalize the content and advertising you see.
Visit our Privacy Policy to learn more. By continuing to use the site, you agree to this use of cookies and data.
  • In Deutschland
  • Länderverzeichnis
  • Für 7 Tage
  • Wassertemperatur
  • Satellitenkarten
  • Wetterkarte
  • Widgets
  • user-avatar
    Anmelden

    Stündliche Wetter Gorodno

    Heute, 18 Januar, Freitag

    Zeit Temperatur Niederschläge Wind Luftdruck Luftfeuchtigkeit
    00:00 -5°C° 0 mm 5 m/S 726 mmHg 84%
    01:00 -5°C° 0 mm 4 m/S 727 mmHg 84%
    02:00 -6°C° 0 mm 3 m/S 727 mmHg 85%
    03:00 -7°C° 0 mm 3 m/S 728 mmHg 86%
    04:00 -7°C° 0 mm 3 m/S 729 mmHg 86%
    05:00 -8°C° 0 mm 3 m/S 729 mmHg 87%
    06:00 -9°C° 0 mm 3 m/S 730 mmHg 89%
    07:00 -9°C° 0 mm 2 m/S 730 mmHg 92%
    08:00 -10°C° 0 mm 1 m/S 731 mmHg 96%
    09:00 -10°C° 0 mm 1 m/S 731 mmHg 94%
    10:00 -10°C° 0 mm 2 m/S 731 mmHg 93%
    11:00 -10°C° 0 mm 2 m/S 732 mmHg 92%
    12:00 -9°C° 0 mm 2 m/S 732 mmHg 91%
    13:00 -9°C° 0 mm 2 m/S 732 mmHg 90%
    14:00 -8°C° 0 mm 2 m/S 732 mmHg 88%
    15:00 -9°C° 0 mm 2 m/S 733 mmHg 90%
    16:00 -10°C° 0 mm 2 m/S 733 mmHg 91%
    17:00 -12°C° 0 mm 2 m/S 733 mmHg 92%
    18:00 -12°C° 0 mm 3 m/S 733 mmHg 92%
    19:00 -12°C° 0 mm 3 m/S 734 mmHg 92%
    20:00 -12°C° 0 mm 3 m/S 734 mmHg 92%
    21:00 -10°C° 0 mm 3 m/S 734 mmHg 92%
    22:00 -11°C° 0 mm 4 m/S 734 mmHg 92%
    23:00 -11°C° 0 mm 4 m/S 734 mmHg 92%

    Morgen, 19 Januar, Samstag

    Zeit Temperatur Niederschläge Wind Luftdruck Luftfeuchtigkeit
    00:00 -10°C° 0.1 mm 4 m/S 735 mmHg 92%
    01:00 -9°C° 0.1 mm 4 m/S 735 mmHg 92%
    02:00 -9°C° 0.1 mm 4 m/S 736 mmHg 91%
    03:00 -9°C° 0.1 mm 4 m/S 736 mmHg 91%
    04:00 -8°C° 0.1 mm 3 m/S 736 mmHg 91%
    05:00 -8°C° 0.1 mm 3 m/S 737 mmHg 91%
    06:00 -9°C° 0 mm 3 m/S 737 mmHg 92%
    07:00 -9°C° 0 mm 2 m/S 737 mmHg 92%
    08:00 -10°C° 0 mm 2 m/S 737 mmHg 93%
    09:00 -10°C° 0 mm 2 m/S 738 mmHg 92%
    10:00 -9°C° 0 mm 2 m/S 738 mmHg 91%
    11:00 -8°C° 0 mm 2 m/S 739 mmHg 90%
    12:00 -7°C° 0.1 mm 2 m/S 739 mmHg 90%
    13:00 -7°C° 0.1 mm 3 m/S 739 mmHg 90%
    14:00 -6°C° 0.1 mm 3 m/S 740 mmHg 90%
    15:00 -6°C° 0.1 mm 3 m/S 740 mmHg 90%
    16:00 -6°C° 0.1 mm 3 m/S 740 mmHg 90%
    17:00 -6°C° 0.1 mm 3 m/S 741 mmHg 90%
    18:00 -7°C° 0 mm 3 m/S 741 mmHg 91%
    19:00 -7°C° 0 mm 3 m/S 740 mmHg 91%
    20:00 -9°C° 0 mm 4 m/S 740 mmHg 91%
    21:00 -9°C° 0 mm 4 m/S 740 mmHg 90%
    22:00 -9°C° 0 mm 4 m/S 740 mmHg 88%
    23:00 -10°C° 0 mm 5 m/S 739 mmHg 87%

    übermorgen, 20 Januar, Sonntag

    Zeit Temperatur Niederschläge Wind Luftdruck Luftfeuchtigkeit
    00:00 -8°C° 0.1 mm 5 m/S 739 mmHg 87%
    01:00 -8°C° 0.1 mm 6 m/S 738 mmHg 87%
    02:00 -8°C° 0.1 mm 6 m/S 738 mmHg 87%
    03:00 -6°C° 0.7 mm 6 m/S 737 mmHg 89%
    04:00 -5°C° 0.7 mm 5 m/S 737 mmHg 91%
    05:00 -5°C° 0.7 mm 5 m/S 736 mmHg 94%
    06:00 -6°C° 0.5 mm 5 m/S 736 mmHg 90%
    07:00 -5°C° 0.5 mm 4 m/S 736 mmHg 86%
    08:00 -7°C° 0.5 mm 4 m/S 736 mmHg 82%
    09:00 -7°C° 0.1 mm 4 m/S 737 mmHg 83%
    10:00 -7°C° 0.1 mm 4 m/S 737 mmHg 84%
    11:00 -8°C° 0.1 mm 4 m/S 738 mmHg 85%
    12:00 -8°C° 0 mm 4 m/S 738 mmHg 85%
    13:00 -9°C° 0 mm 4 m/S 739 mmHg 84%
    14:00 -9°C° 0 mm 4 m/S 739 mmHg 84%
    15:00 -10°C° 0 mm 4 m/S 739 mmHg 85%
    16:00 -11°C° 0 mm 4 m/S 739 mmHg 85%
    17:00 -11°C° 0 mm 4 m/S 740 mmHg 85%
    18:00 -12°C° 0 mm 3 m/S 740 mmHg 87%
    19:00 -12°C° 0 mm 3 m/S 740 mmHg 89%
    20:00 -13°C° 0 mm 3 m/S 740 mmHg 91%
    21:00 -13°C° 0 mm 3 m/S 741 mmHg 93%
    22:00 -14°C° 0 mm 3 m/S 741 mmHg 94%
    23:00 -14°C° 0 mm 2 m/S 741 mmHg 95%

    21 Januar, Montag

    Zeit Temperatur Niederschläge Wind Luftdruck Luftfeuchtigkeit
    00:00 -13°C° 0 mm 2 m/S 741 mmHg 95%
    01:00 -13°C° 0 mm 2 m/S 741 mmHg 95%
    02:00 -12°C° 0 mm 2 m/S 741 mmHg 95%
    03:00 -14°C° 0 mm 3 m/S 741 mmHg 95%
    04:00 -15°C° 0 mm 3 m/S 741 mmHg 95%
    05:00 -15°C° 0 mm 3 m/S 741 mmHg 95%
    06:00 -15°C° 0 mm 3 m/S 742 mmHg 95%
    07:00 -15°C° 0 mm 3 m/S 742 mmHg 95%
    08:00 -16°C° 0 mm 3 m/S 743 mmHg 95%
    09:00 -15°C° 0 mm 3 m/S 743 mmHg 94%
    10:00 -15°C° 0 mm 3 m/S 743 mmHg 94%
    11:00 -14°C° 0 mm 3 m/S 744 mmHg 93%
    12:00 -14°C° 0 mm 3 m/S 744 mmHg 92%
    13:00 -13°C° 0 mm 3 m/S 744 mmHg 91%
    14:00 -13°C° 0 mm 3 m/S 744 mmHg 91%
    15:00 -13°C° 0 mm 2 m/S 744 mmHg 93%
    16:00 -14°C° 0 mm 2 m/S 744 mmHg 94%
    17:00 -15°C° 0 mm 2 m/S 744 mmHg 96%
    18:00 -15°C° 0 mm 2 m/S 744 mmHg 97%
    19:00 -12°C° 0 mm 1 m/S 744 mmHg 97%
    20:00 -12°C° 0 mm 1 m/S 745 mmHg 97%
    21:00 -12°C° 0 mm 1 m/S 745 mmHg 97%
    22:00 -12°C° 0 mm 1 m/S 745 mmHg 98%
    23:00 -12°C° 0 mm 1 m/S 745 mmHg 98%

    22 Januar, Dienstag

    Zeit Temperatur Niederschläge Wind Luftdruck Luftfeuchtigkeit
    00:00 -12°C° 0 mm 1 m/S 745 mmHg 98%
    01:00 -12°C° 0 mm 1 m/S 745 mmHg 98%
    02:00 -11°C° 0 mm 1 m/S 745 mmHg 98%
    03:00 -11°C° 0 mm 1 m/S 745 mmHg 98%
    04:00 -11°C° 0 mm 1 m/S 745 mmHg 97%
    05:00 -11°C° 0 mm 1 m/S 744 mmHg 97%
    06:00 -12°C° 0 mm 0 m/S 744 mmHg 98%
    07:00 -12°C° 0 mm 0 m/S 744 mmHg 98%
    08:00 -13°C° 0 mm 0 m/S 744 mmHg 98%
    09:00 -12°C° 0 mm 0 m/S 744 mmHg 97%
    10:00 -12°C° 0 mm 0 m/S 744 mmHg 96%
    11:00 -11°C° 0 mm 1 m/S 744 mmHg 95%
    12:00 -10°C° 0 mm 1 m/S 744 mmHg 95%
    13:00 -10°C° 0 mm 1 m/S 744 mmHg 94%
    14:00 -9°C° 0 mm 1 m/S 744 mmHg 93%
    15:00 -10°C° 0 mm 1 m/S 743 mmHg 94%
    16:00 -13°C° 0 mm 2 m/S 743 mmHg 95%
    17:00 -13°C° 0 mm 2 m/S 743 mmHg 96%
    18:00 -13°C° 0.1 mm 2 m/S 743 mmHg 96%
    19:00 -12°C° 0.1 mm 2 m/S 743 mmHg 96%
    20:00 -12°C° 0.1 mm 2 m/S 742 mmHg 96%
    21:00 -12°C° 0 mm 2 m/S 742 mmHg 96%
    22:00 -10°C° 0 mm 2 m/S 742 mmHg 96%
    23:00 -10°C° 0 mm 2 m/S 742 mmHg 96%

    23 Januar, Mittwoch

    Zeit Temperatur Niederschläge Wind Luftdruck Luftfeuchtigkeit
    00:00 -10°C° 0 mm 2 m/S 741 mmHg 96%
    01:00 -10°C° 0 mm 3 m/S 741 mmHg 96%
    02:00 -10°C° 0 mm 3 m/S 741 mmHg 95%
    03:00 -9°C° 0 mm 3 m/S 741 mmHg 95%
    04:00 -8°C° 0 mm 3 m/S 741 mmHg 94%
    05:00 -8°C° 0 mm 3 m/S 740 mmHg 94%
    06:00 -8°C° 0 mm 3 m/S 740 mmHg 93%
    07:00 -8°C° 0 mm 3 m/S 740 mmHg 92%
    08:00 -8°C° 0 mm 3 m/S 740 mmHg 91%
    09:00 -8°C° 0 mm 3 m/S 740 mmHg 90%
    10:00 -9°C° 0 mm 4 m/S 740 mmHg 89%
    11:00 -9°C° 0 mm 4 m/S 740 mmHg 88%
    12:00 -9°C° 0 mm 4 m/S 740 mmHg 87%
    13:00 -9°C° 0 mm 4 m/S 740 mmHg 86%
    14:00 -8°C° 0 mm 3 m/S 740 mmHg 85%
    15:00 -9°C° 0 mm 3 m/S 740 mmHg 87%
    16:00 -10°C° 0 mm 3 m/S 740 mmHg 88%
    17:00 -13°C° 0 mm 3 m/S 740 mmHg 90%
    18:00 -13°C° 0 mm 3 m/S 740 mmHg 91%
    19:00 -14°C° 0 mm 3 m/S 740 mmHg 92%
    20:00 -15°C° 0 mm 3 m/S 741 mmHg 92%
    21:00 -14°C° 0 mm 3 m/S 741 mmHg 92%
    22:00 -13°C° 0 mm 3 m/S 741 mmHg 93%
    23:00 -10°C° 0 mm 2 m/S 741 mmHg 93%
    Mehr zeigen